This is the latest recevied weather packets stored in our database for station/object IR4UCA. If no packets are shown the sender has not sent any weather packets the latest 10 day(s).
| Time | Temp. | Humidity | Pressure | Rain* | Wind** | Luminosity | Snow |
|---|---|---|---|---|---|---|---|
| 1777717786 | 21.11° C | 37% | 1025.2 hPa | 0 mm | - | - | - |
| 1777717184 | 20.56° C | 38% | 1025.2 hPa | 0 mm | - | - | - |
| 1777715984 | 20.56° C | 39% | 1025.6 hPa | 0 mm | - | - | - |
| 1777715384 | 20° C | 38% | 1025.6 hPa | 0 mm | - | - | - |
| 1777714183 | 19.44° C | 40% | 1025.8 hPa | 0 mm | - | - | - |
| 1777712983 | 18.89° C | 41% | 1026 hPa | 0 mm | - | - | - |
| 1777712384 | 18.33° C | 44% | 1026 hPa | 0 mm | - | - | - |
| 1777711784 | 17.78° C | 44% | 1026 hPa | 0 mm | - | - | - |
| 1777711183 | 17.78° C | 47% | 1026 hPa | 0 mm | - | - | - |
| 1777710583 | 17.22° C | 48% | 1026.1 hPa | 0 mm | - | - | - |
| 1777709983 | 16.67° C | 51% | 1026 hPa | 0 mm | - | - | - |
| 1777709384 | 15.56° C | 52% | 1026 hPa | 0 mm | - | - | - |
| 1777708785 | 15° C | 54% | 1026.2 hPa | 0 mm | - | - | - |
| 1777708183 | 14.44° C | 56% | 1026.3 hPa | 0 mm | - | - | - |
| 1777707590 | 13.89° C | 56% | 1026.3 hPa | 0 mm | - | - | - |
| 1777706985 | 13.33° C | 56% | 1026.3 hPa | 0 mm | - | - | - |
| 1777706383 | 13.33° C | 57% | 1026.4 hPa | 0 mm | - | - | - |
| 1777705783 | 12.78° C | 57% | 1026.4 hPa | 0 mm | - | - | - |
| 1777705185 | 12.22° C | 58% | 1026.5 hPa | 0 mm | - | - | - |
| 1777703984 | 11.67° C | 58% | 1026.5 hPa | 0 mm | - | - | - |
| 1777703384 | 11.11° C | 59% | 1026.4 hPa | 0 mm | - | - | - |
| 1777702783 | 10.56° C | 60% | 1026.5 hPa | 0 mm | - | - | - |
| 1777702183 | 10.56° C | 60% | 1026.5 hPa | 0 mm | - | - | - |
| 1777701585 | 10.56° C | 59% | 1026.5 hPa | 0 mm | - | - | - |
| 1777700983 | 10.56° C | 59% | 1026.5 hPa | 0 mm | - | - | - |
* Rain latest hour (hover to see other rain measurements)
** Current wind speed in m/s (hover to see current wind gust speed)